This is the latest recevied weather packets stored in our database for station/object HB9CJD-1. If no packets are shown the sender has not sent any weather packets the latest 10 day(s).
| Time | Temp. | Humidity | Pressure | Rain* | Wind** | Luminosity | Snow |
|---|---|---|---|---|---|---|---|
| 1777472133 | 22.22° C | 39% | 1020 hPa | - | - | - | - |
| 1777472133 | 22.22° C | 39% | 1020 hPa | - | - | - | - |
| 1777471530 | 22.78° C | 37% | 1020.1 hPa | - | - | - | - |
| 1777471530 | 22.78° C | 37% | 1020.1 hPa | - | - | - | - |
| 1777470926 | 22.78° C | 41% | 1020.2 hPa | - | - | - | - |
| 1777470926 | 22.78° C | 41% | 1020.2 hPa | - | - | - | - |
| 1777470323 | 22.22° C | 40% | 1020.2 hPa | - | - | - | - |
| 1777470323 | 22.22° C | 40% | 1020.2 hPa | - | - | - | - |
| 1777469720 | 21.67° C | 40% | 1020.2 hPa | - | - | - | - |
| 1777469720 | 21.67° C | 40% | 1020.2 hPa | - | - | - | - |
| 1777469117 | 21.67° C | 40% | 1020.2 hPa | - | - | - | - |
| 1777469116 | 21.67° C | 40% | 1020.2 hPa | - | - | - | - |
| 1777468513 | 21.67° C | 39% | 1020.3 hPa | - | - | - | - |
| 1777468513 | 21.67° C | 39% | 1020.3 hPa | - | - | - | - |
| 1777467910 | 21.67° C | 40% | 1020.2 hPa | - | - | - | - |
| 1777467910 | 21.67° C | 40% | 1020.2 hPa | - | - | - | - |
| 1777467307 | 21.67° C | 42% | 1020.2 hPa | - | - | - | - |
| 1777467307 | 21.67° C | 42% | 1020.2 hPa | - | - | - | - |
| 1777466704 | 20.56° C | 44% | 1020.2 hPa | - | - | - | - |
| 1777466704 | 20.56° C | 44% | 1020.2 hPa | - | - | - | - |
| 1777466101 | 20° C | 42% | 1020.2 hPa | - | - | - | - |
| 1777466100 | 20° C | 42% | 1020.2 hPa | - | - | - | - |
| 1777465497 | 20° C | 44% | 1020.3 hPa | - | - | - | - |
| 1777465497 | 20° C | 44% | 1020.3 hPa | - | - | - | - |
| 1777464894 | 20.56° C | 48% | 1020.3 hPa | - | - | - | - |
* Rain since midnight (hover to see other rain measurements)
** Current wind speed in m/s (hover to see current wind gust speed)